Stations météo

Publicité
Writtle, Grande-Bretagne (99127): Température de l'air & dewpoint: 29.03.2020 00:00:00 - 04.04.2020 00:00:00 (BST)Writtle, Grande-Bretagne (99127): Température de l'air -20cm: 29.03.2020 00:00:00 - 04.04.2020 00:00:00 (BST)Writtle, Grande-Bretagne (99127): Quantités de précipitations: 29.03.2020 00:00:00 - 04.04.2020 00:00:00 (BST)
Date & Time tt [°C] td [°C] tt -20cm [°C] rr [mm]
04.04.2020 00:00:00 2,2 0,5 - 0,0
03.04.2020 23:00:00 3,8 1,7 - 0,0
03.04.2020 22:00:00 6,1 2,9 - 0,0
03.04.2020 21:00:00 9,3 2,4 - 0,0
03.04.2020 20:00:00 8,9 3,1 - 0,0
03.04.2020 19:00:00 10,5 0,8 - 0,0
03.04.2020 18:00:00 11,7 2,0 - 0,0
03.04.2020 17:00:00 11,8 1,8 - 0,0
03.04.2020 16:00:00 11,2 1,9 - 0,0
03.04.2020 15:00:00 11,1 2,1 - 0,0
03.04.2020 14:00:00 10,2 1,4 - 0,0
03.04.2020 13:00:00 10,2 1,7 - 0,0
03.04.2020 12:00:00 9,8 1,8 - 0,0
03.04.2020 11:00:00 9,6 2,7 - 0,0
03.04.2020 10:00:00 8,7 1,8 7,5 0,0
03.04.2020 09:00:00 7,7 1,9 - 0,0
03.04.2020 08:00:00 6,9 1,9 - 0,0
03.04.2020 07:00:00 6,4 1,3 - 0,0
03.04.2020 06:00:00 6,3 1,1 - 0,0
03.04.2020 05:00:00 7,0 0,4 - 0,0
03.04.2020 04:00:00 7,4 0,6 - 0,0
03.04.2020 03:00:00 7,7 1,9 - 0,0
03.04.2020 02:00:00 8,4 1,9 - 0,0
03.04.2020 01:00:00 8,2 2,4 - 0,0
03.04.2020 00:00:00 8,7 2,3 - 0,0
02.04.2020 23:00:00 8,9 2,0 - 0,0
02.04.2020 22:00:00 8,8 1,9 - 0,0
02.04.2020 21:00:00 10,0 2,1 - 0,0
02.04.2020 20:00:00 10,7 4,7 - 0,0
02.04.2020 19:00:00 11,4 4,6 - 0,0
02.04.2020 18:00:00 12,2 4,8 - 0,0
02.04.2020 17:00:00 12,4 4,6 - 0,0
02.04.2020 16:00:00 12,6 4,3 - 0,0
02.04.2020 15:00:00 13,7 3,6 - 0,0
02.04.2020 14:00:00 12,4 1,9 - 0,0
02.04.2020 13:00:00 11,3 2,4 - 0,0
02.04.2020 12:00:00 10,6 2,9 - 0,0
02.04.2020 11:00:00 10,3 4,0 - 0,0
02.04.2020 10:00:00 8,5 3,5 7,0 0,0
02.04.2020 09:00:00 7,2 3,1 - 0,0
02.04.2020 08:00:00 5,7 2,3 - 0,0
02.04.2020 07:00:00 2,9 1,1 - 0,0
02.04.2020 06:00:00 3,5 1,2 - 0,0
02.04.2020 05:00:00 4,4 1,3 - 0,0
02.04.2020 04:00:00 4,9 1,6 - 0,0
02.04.2020 03:00:00 5,3 1,6 - 0,0
02.04.2020 02:00:00 5,2 1,3 - 0,0
02.04.2020 01:00:00 5,3 1,2 - 0,0
02.04.2020 00:00:00 5,2 1,2 - 0,0
01.04.2020 23:00:00 5,0 1,1 - 0,0
01.04.2020 22:00:00 5,3 0,8 - 0,0
01.04.2020 21:00:00 6,2 1,2 - 0,0
01.04.2020 20:00:00 6,6 1,0 - 0,0
01.04.2020 19:00:00 7,3 0,5 - 0,0
01.04.2020 18:00:00 7,9 0,0 - 0,0
01.04.2020 17:00:00 8,0 -0,1 - 0,0
01.04.2020 16:00:00 8,4 -0,2 - 0,0
01.04.2020 15:00:00 8,6 -0,7 - 0,0
01.04.2020 14:00:00 8,3 -0,6 - 0,0
01.04.2020 13:00:00 7,3 -0,7 - 0,0
01.04.2020 12:00:00 6,0 -0,6 - 0,0
01.04.2020 11:00:00 6,3 -0,2 - 0,0
01.04.2020 10:00:00 6,1 1,1 6,7 0,0
01.04.2020 09:00:00 2,9 0,6 - 0,0
01.04.2020 08:00:00 -0,7 -1,3 - 0,2
01.04.2020 07:00:00 -4,0 -4,8 - 0,0
01.04.2020 06:00:00 -4,0 -4,7 - 0,0
01.04.2020 05:00:00 -3,5 -4,3 - 0,0
01.04.2020 04:00:00 -3,2 -4,1 - 0,0
01.04.2020 03:00:00 -2,7 -3,7 - 0,0
01.04.2020 02:00:00 -2,1 -3,3 - 0,0
01.04.2020 01:00:00 -1,5 -3,1 - 0,0
01.04.2020 00:00:00 -0,8 -2,1 - 0,0
31.03.2020 23:00:00 0,1 -1,5 - 0,0
31.03.2020 22:00:00 1,2 -1,3 - 0,0
31.03.2020 21:00:00 2,2 -0,9 - 0,0
31.03.2020 20:00:00 4,7 -1,0 - 0,0
31.03.2020 19:00:00 6,1 -1,1 - 0,0
31.03.2020 18:00:00 7,4 0,0 - 0,0
31.03.2020 17:00:00 8,1 1,5 - 0,0
31.03.2020 16:00:00 9,0 2,4 - 0,0
31.03.2020 15:00:00 8,6 0,4 - 0,0
31.03.2020 14:00:00 8,6 0,4 - 0,0
31.03.2020 13:00:00 8,0 -0,7 - 0,0
31.03.2020 12:00:00 8,2 0,5 - 0,0
31.03.2020 11:00:00 7,4 0,7 - 0,0
31.03.2020 10:00:00 7,2 2,4 7,0 0,0
31.03.2020 09:00:00 5,8 2,3 - 0,0
31.03.2020 08:00:00 3,1 1,3 - 0,0
31.03.2020 07:00:00 1,2 0,0 - 0,0
31.03.2020 06:00:00 1,6 -0,1 - 0,0
31.03.2020 05:00:00 2,3 0,3 - 0,0
31.03.2020 04:00:00 2,3 0,2 - 0,0
31.03.2020 03:00:00 3,2 0,9 - 0,0
31.03.2020 02:00:00 3,1 1,6 - 0,0
31.03.2020 01:00:00 3,2 1,6 - 0,0
31.03.2020 00:00:00 3,5 1,7 - 0,0
30.03.2020 23:00:00 3,9 1,8 - 0,0
30.03.2020 22:00:00 5,2 2,0 - 0,0
30.03.2020 21:00:00 5,6 2,2 - 0,0
30.03.2020 20:00:00 6,6 2,6 - 0,0
30.03.2020 19:00:00 6,8 3,5 - 0,2
30.03.2020 18:00:00 6,6 2,8 - 0,4
30.03.2020 17:00:00 8,3 1,0 - 0,0
30.03.2020 16:00:00 9,3 0,0 - 0,0
30.03.2020 15:00:00 9,1 3,4 - 0,2
30.03.2020 14:00:00 8,9 1,9 - 0,0
30.03.2020 13:00:00 7,6 1,6 - 0,0
30.03.2020 12:00:00 7,1 2,2 - 0,0
30.03.2020 11:00:00 6,1 2,1 - 0,0
30.03.2020 10:00:00 4,9 0,2 6,9 0,0
30.03.2020 09:00:00 3,6 -1,1 - 0,0
30.03.2020 08:00:00 3,0 -1,3 - 0,0
30.03.2020 07:00:00 2,4 -0,6 - 0,0
30.03.2020 06:00:00 2,4 -0,5 - 0,0
30.03.2020 05:00:00 1,6 -1,1 - 0,0
30.03.2020 04:00:00 2,6 -1,0 - 0,0
30.03.2020 03:00:00 2,6 -1,6 - 0,0
30.03.2020 02:00:00 2,7 -3,4 - 0,0
30.03.2020 01:00:00 1,9 -3,9 - 0,0
30.03.2020 00:00:00 0,7 -4,4 - 0,0
29.03.2020 23:00:00 1,8 -4,5 - 0,0
29.03.2020 22:00:00 2,6 -5,0 - 0,0
29.03.2020 21:00:00 3,0 -5,2 - 0,0
29.03.2020 20:00:00 3,7 -5,4 - 0,0
29.03.2020 19:00:00 4,7 -6,0 - 0,0
29.03.2020 18:00:00 5,9 -7,0 - 0,0
29.03.2020 17:00:00 6,3 -5,6 - 0,0
29.03.2020 16:00:00 5,3 -1,2 - 0,0
29.03.2020 15:00:00 5,3 -0,5 - 0,0
29.03.2020 14:00:00 4,3 -1,1 - 0,0
29.03.2020 13:00:00 5,5 -0,7 - 0,2
29.03.2020 12:00:00 2,7 0,1 - 0,0
29.03.2020 11:00:00 5,6 0,3 - 0,0
29.03.2020 10:00:00 5,5 -3,6 7,0 0,0
29.03.2020 09:00:00 4,7 -4,1 - 0,0
29.03.2020 08:00:00 3,5 -2,7 - 0,0
29.03.2020 07:00:00 3,5 -3,0 - 0,0
29.03.2020 06:00:00 3,7 -2,6 - 0,0
29.03.2020 05:00:00 3,9 -2,0 - 0,0
29.03.2020 04:00:00 4,1 -3,1 - 0,0
29.03.2020 03:00:00 3,6 -2,5 - 0,0
29.03.2020 02:00:00 3,8 -0,5 - 0,0
29.03.2020 01:00:00 3,7 0,0 - 0,0
29.03.2020 00:00:00 - - - -

tt = Température de l'air
td = dewpoint
tt -20cm = Température de l'air -20cm
rr = Quantités de précipitations

stations d'obs. à proximité